This demonstration page uses our WeatherBlox Daily Observations layout. Learn more.

39.92423, -83.80882

Hourly Observations for April 18, 2015

Temp ( °F °C ) Dew Point ( °F °C ) Humidity (%) Winds ( mph kmh ) Pressure ( in mb ) Visibility ( mi km ) Precip ( " mm )
12:56 am 00:56 Clear 52 11.1 44 6.6 74 74 E 3 6 30.05 1018 7 11.26538 0 0
1:56 am 01:56 Clear 52 11.1 44 6.6 74 74 Calm 30.04 1017 7 11.26538 0 0
2:56 am 02:56 Clear 51 10.5 43 6.1 74 74 Calm 30.04 1017 7 11.26538 0 0
3:56 am 03:56 Clear 49 9.4 42 5.5 77 77 Calm 30.07 1018 7 11.26538 0 0
4:56 am 04:56 Clear 47 8.3 43 6.1 86 86 E 3 6 30.06 1018 7 11.26538 0 0
5:56 am 05:56 Clear 46 7.7 42 5.5 86 86 Calm 30.06 1018 7 11.26538 0 0
6:56 am 06:56 Sunny 47 8.3 42 5.5 83 83 Calm 30.06 1018 7 11.26538 0 0
7:56 am 07:56 Sunny with Mist and Fog 49 9.4 46 7.7 89 89 E 3 6 30.08 1019 5 8.0467 0 0
8:56 am 08:56 Hazy 60 15.5 50 10 70 70 Calm 30.08 1019 5 8.0467 0 0
9:56 am 09:56 Hazy 67 19.4 48 8.8 50 50 SSE 3 6 30.07 1018 6 9.65604 0 0
10:56 am 10:56 Hazy 72 22.2 47 8.3 41 41 NNE 5 7 30.07 1018 6 9.65604 0 0
11:56 am 11:56 Hazy 76 24.4 49 9.4 39 39 VRB 7 11 30.06 1018 5 8.0467 0 0
12:56 pm 12:56 Hazy 76 24.4 48 8.8 37 37 VRB 3 6 30.06 1018 6 9.65604 0 0
1:56 pm 13:56 Mostly Cloudy with Haze 78 25.5 49 9.4 36 36 VRB 5 7 30.05 1018 6 9.65604 0 0
2:56 pm 14:56 Hazy 79 26.1 49 9.4 35 35 VRB 3 6 30.03 1017 6 9.65604 0 0
3:56 pm 15:56 Hazy 79 26.1 49 9.4 35 35 NE 7 11 30.03 1017 5 8.0467 0 0
4:56 pm 16:56 Hazy 77 25 47 8.3 35 35 VRB 5 7 30.01 1016 6 9.65604 0 0
5:56 pm 17:56 Hazy 75 23.8 50 10 42 42 ENE 6 9 30 1016 6 9.65604 0 0
6:56 pm 18:56 Hazy 72 22.2 51 10.5 48 48 E 7 11 30 1016 6 9.65604 0 0
7:56 pm 19:56 Hazy 69 20.5 51 10.5 53 53 ENE 3 6 29.99 1016 6 9.65604 0 0
8:56 pm 20:56 Clear 65 18.3 51 10.5 61 61 ENE 6 9 30.01 1016 7 11.26538 0 0
9:56 pm 21:56 Clear 64 17.7 52 11.1 65 65 NE 10 17 30.01 1016 7 11.26538 0 0
10:56 pm 22:56 Clear 62 16.6 50 10 65 65 NE 12 19 30.01 1016 7 11.26538 0 0
11:56 pm 23:56 Clear 59 15 49 9.4 69 69 NE 10 17 30 1016 7 11.26538 0 0

Powered by AerisWeather